(210016) = 2004 XV168 = 2006 KF22

Discovered at Mount Lemmon on 2006-05-19 by Mt. Lemmon Survey.

Orbit

Orbit type: Main Belt

Note: WebGL enabled browser required.

epoch2024-03-31.0
epoch JD2460400.5
perihelion date2024-02-02.03082
perihelion JD2460342.53082
argument of perihelion (°)126.17427
ascending node (°)65.27000
inclination (°)8.43223
eccentricity0.1102410
perihelion distance (AU)2.0978142
Tisserand w.r.t. Jupiter3.5
ΔV w.r.t. Earth (km/sec)9.4
semimajor axis (AU)2.3577330
mean anomaly (°)15.78189
mean daily motion (°/day)0.27224620
aphelion distance (AU)2.618
period (years)3.62
P-vector [x]-0.97219231
P-vector [y]-0.23247663
P-vector [z]0.02822648
Q-vector [x]0.19261941
Q-vector [y]-0.86236301
Q-vector [z]-0.46821768
absolute magnitude16.79
phase slope0.15
uncertainty0
referenceMPEC 2024-F14
observations used335
oppositions12
arc length (days)8033
first opposition used2002
last opposition used2024
residual rms (arc-secs)0.82
perturbers coarse indicatorM-v
perturbers precise indicator003Ek
first observation date used2002-03-20.0
last observation date used2024-03-17.0
computer nameMPCLINUX
JD of orbit computation2456937.507521
perihelion JD uncertainty (days)1.0022E-04
argument of perihelion uncertainty (°)5.5255E-05
ascending node uncertainty (°)4.6429E-05
inclination uncertainty (°)7.4904E-06
eccentricity uncertainty 7.8999E-08
perihelion distance uncertainty (AU)1.8334E-07
Minimum Orbit Intersection Distances (in AU)
for orbit epoch: 2460400.5, reference: E2024-G51
Mercury1.67414
Venus1.3791
Earth1.10846
Mars0.49403
Jupiter2.35618
Saturn6.58452
Uranus16.3292
Neptune27.2237

Observations

343 total observations over interval: 2002 03 20.27495 – 2024 03 17.638469
These data are available for download (format description).

Date (UT) J2000 RA J2000 Dec Magn Location Ref
2002 03 20.27495 11 44 36.44 +17 57 18.4 19.1   704 – Lincoln Laboratory ETS, New Mexico MPS 173619
2002 03 20.28731 11 44 35.63 +17 57 20.9 19.1   704 – Lincoln Laboratory ETS, New Mexico MPS 173619
2002 03 20.30264 11 44 34.71 +17 57 23.4 19.4   704 – Lincoln Laboratory ETS, New Mexico MPS 173619
2002 03 20.31675 11 44 33.82 +17 57 25.8 19.0   704 – Lincoln Laboratory ETS, New Mexico MPS 173619
2002 03 20.33631 11 44 32.63 +17 57 29.6 18.7   704 – Lincoln Laboratory ETS, New Mexico MPS 173619
2002 04 01.33866 11 33 30.61 +18 13 33.1 19.7   644 – Palomar Mountain/NEAT MPS 173619
2002 04 01.35501 11 33 29.76 +18 13 32.4 19.9   644 – Palomar Mountain/NEAT MPS 173619
2002 04 01.36810 11 33 29.10 +18 13 31.8 19.8   644 – Palomar Mountain/NEAT MPS 173619
2004 12 08.34128 04 54 37.53 +25 07 46.9 20.0   704 – Lincoln Laboratory ETS, New Mexico MPS 124135
2004 12 08.35826 04 54 36.39 +25 07 49.7 20.1   704 – Lincoln Laboratory ETS, New Mexico MPS 124135
2004 12 08.37235 04 54 35.30 +25 07 50.6 19.8   704 – Lincoln Laboratory ETS, New Mexico MPS 124135
2004 12 16.10898 04 45 21.14 +25 20 12.6 20.2 V 691 – Steward Observatory, Kitt Peak-Spacewatch MPS 124135
2004 12 16.13548 04 45 19.26 +25 20 15.1 19.9 V 691 – Steward Observatory, Kitt Peak-Spacewatch MPS 124135
2004 12 16.16329 04 45 17.28 +25 20 17.5 20.0 V 691 – Steward Observatory, Kitt Peak-Spacewatch MPS 124135
2006 05 06.36374 16 15 38.15 -18 45 47.6 19.0 V G96 – Mt. Lemmon Survey MPS 172927
2006 05 06.36807 16 15 37.97 -18 45 48.0 18.9 V G96 – Mt. Lemmon Survey MPS 172927
2006 05 06.37256 16 15 37.71 -18 45 48.7 18.9 V G96 – Mt. Lemmon Survey MPS 172927
2006 05 06.37675 16 15 37.44 -18 45 49.3 19.1 V G96 – Mt. Lemmon Survey MPS 172927
2006 05 19.34044 16 02 19.93 -19 15 09.9 18.5 V G96 – Mt. Lemmon Survey MPS 172172
2006 05 19.34876 16 02 19.39 -19 15 11.0 18.6 V G96 – Mt. Lemmon Survey MPS 172172
2006 05 19.35683 16 02 18.81 -19 15 12.0 18.7 V G96 – Mt. Lemmon Survey MPS 172172
2006 05 19.36505 16 02 18.24 -19 15 13.1 18.7 V G96 – Mt. Lemmon Survey MPS 172172
2006 05 20.67372 16 00 51.51 -19 17 53.9 18.8 V E12 – Siding Spring Survey MPS 172172
2006 05 20.67954 16 00 51.12 -19 17 53.1 18.9 V E12 – Siding Spring Survey MPS 172172
2006 05 20.68535 16 00 50.65 -19 17 52.5 18.3 V E12 – Siding Spring Survey MPS 172172
2006 05 20.69118 16 00 50.36 -19 17 54.5 19.0 V E12 – Siding Spring Survey MPS 172172
2006 05 24.27963 15 56 52.12 -19 25 31.7 18.5 R 644 – Palomar Mountain/NEAT MPS 172172
2006 05 24.30410 15 56 50.42 -19 25 34.9 18.6 R 644 – Palomar Mountain/NEAT MPS 172172
2006 05 24.32713 15 56 48.85 -19 25 37.8 18.6 R 644 – Palomar Mountain/NEAT MPS 172172
2006 06 04.30303 15 45 12.16 -19 47 58.0 19.1 V G96 – Mt. Lemmon Survey MPS 173619
2006 06 04.30792 15 45 11.84 -19 47 58.4 19.0 V G96 – Mt. Lemmon Survey MPS 173619
2006 06 04.31295 15 45 11.55 -19 47 59.1 19.1 V G96 – Mt. Lemmon Survey MPS 173619
2006 06 04.31785 15 45 11.23 -19 48 00.0 19.1 V G96 – Mt. Lemmon Survey MPS 173619
2009 01 16.32999 09 12 26.56 +29 29 14.7 19.7   704 – Lincoln Laboratory ETS, New Mexico MPS 272637
2009 01 16.34207 09 12 25.99 +29 29 21.1 19.7   704 – Lincoln Laboratory ETS, New Mexico MPS 272637
2009 01 16.36612 09 12 24.55 +29 29 34.5 20.1   704 – Lincoln Laboratory ETS, New Mexico MPS 272637
2009 01 20.37574 09 08 41.20 +30 03 04.2 19.3 V 703 – Catalina Sky Survey MPS 272637
2009 01 20.38219 09 08 40.63 +30 03 06.6 19.6 V 703 – Catalina Sky Survey MPS 272637
2009 01 20.38875 09 08 40.30 +30 03 10.0 19.1 V 703 – Catalina Sky Survey MPS 272637
2009 01 20.39520 09 08 39.94 +30 03 12.8 19.4 V 703 – Catalina Sky Survey MPS 272637
2009 01 29.27732 08 59 18.52 +31 10 24.5 19.5 V 703 – Catalina Sky Survey MPS 272637
2009 01 29.28210 08 59 18.16 +31 10 24.9 19.8 V 703 – Catalina Sky Survey MPS 272637
2009 01 29.28693 08 59 17.88 +31 10 26.7 19.5 V 703 – Catalina Sky Survey MPS 272637
2009 01 29.29182 08 59 17.59 +31 10 28.7 19.5 V 703 – Catalina Sky Survey MPS 272637
2009 01 29.32563 08 59 15.21 +31 10 43.0 19.2 V 703 – Catalina Sky Survey MPS 272637
2009 01 29.33185 08 59 14.74 +31 10 45.7 19.4 V 703 – Catalina Sky Survey MPS 272637
2009 01 29.33801 08 59 14.38 +31 10 48.6 19.3 V 703 – Catalina Sky Survey MPS 272637
2009 01 29.34429 08 59 13.84 +31 10 50.4 19.3 V 703 – Catalina Sky Survey MPS 272637
2009 01 29.41484 08 59 08.95 +31 11 19.3 19.2 V G96 – Mt. Lemmon Survey MPS 272637
2009 01 29.42316 08 59 08.44 +31 11 22.5 19.2 V G96 – Mt. Lemmon Survey MPS 272637
2009 01 29.42741 08 59 08.08 +31 11 24.5 19.2 V G96 – Mt. Lemmon Survey MPS 272637
2009 02 14.22013 08 41 58.52 +32 28 14.4 19.8 V 703 – Catalina Sky Survey MPS 276521
2009 02 14.22736 08 41 58.09 +32 28 15.7 19.5 V 703 – Catalina Sky Survey MPS 276521
2009 02 14.23459 08 41 57.58 +32 28 17.5 19.3 V 703 – Catalina Sky Survey MPS 276521
2009 02 14.24184 08 41 57.15 +32 28 18.5 19.1 V 703 – Catalina Sky Survey MPS 276521
2009 02 22.14996 08 34 53.40 +32 41 46.7 19.7 V 703 – Catalina Sky Survey MPS 277602
2009 02 22.15530 08 34 53.04 +32 41 47.9 19.5 V 703 – Catalina Sky Survey MPS 277602
2009 02 22.16074 08 34 52.78 +32 41 48.9 19.9 V 703 – Catalina Sky Survey MPS 277602
2009 02 22.16623 08 34 52.35 +32 41 48.7 19.9 V 703 – Catalina Sky Survey MPS 277602
2011 10 18.33887 03 29 55.59 +13 42 57.9 20.8 V 691 – Steward Observatory, Kitt Peak-Spacewatch MPS 396058
2011 10 18.35665 03 29 54.77 +13 42 56.6 20.6 V 691 – Steward Observatory, Kitt Peak-Spacewatch MPS 396058
2011 10 18.37441 03 29 53.93 +13 42 55.9 20.6 V 691 – Steward Observatory, Kitt Peak-Spacewatch MPS 396058
2011 10 22.30808 03 26 47.28 +13 38 46.1 20.6 V 691 – Steward Observatory, Kitt Peak-Spacewatch MPS 397902
2011 10 22.32585 03 26 46.41 +13 38 44.8 20.6 V 691 – Steward Observatory, Kitt Peak-Spacewatch MPS 397902
2011 10 22.34362 03 26 45.63 +13 38 46.0 19.8 V 691 – Steward Observatory, Kitt Peak-Spacewatch MPS 397902
2011 11 03.26125 03 15 21.09 +13 23 29.1 20.0 V 691 – Steward Observatory, Kitt Peak-Spacewatch MPS 399766
2011 11 03.27902 03 15 19.97 +13 23 28.0 20.1 V 691 – Steward Observatory, Kitt Peak-Spacewatch MPS 399766
2011 11 03.29679 03 15 18.82 +13 23 26.1 20.1 V 691 – Steward Observatory, Kitt Peak-Spacewatch MPS 399766
2011 11 21.76148 02 55 21.97 +13 01 39.2 20.2 V 198 – Wildberg MPS 402164
2011 11 21.77211 02 55 21.26 +13 01 39.4 20.1 V 198 – Wildberg MPS 402164
2011 11 24.27829 02 52 47.509 +12 59 56.39 20.9 g F51 – Pan-STARRS 1, Haleakala MPS 402164
2011 11 24.30297 02 52 45.962 +12 59 55.46 20.5 r F51 – Pan-STARRS 1, Haleakala MPS 402164
2011 11 24.31416 02 52 45.265 +12 59 55.13 20.4 r F51 – Pan-STARRS 1, Haleakala MPS 402164
2013 02 05.46711 13 36 36.75 +01 53 10.1 20.1 V 703 – Catalina Sky Survey MPS 455855
2013 02 05.47448 13 36 36.93 +01 53 10.0 19.9 V 703 – Catalina Sky Survey MPS 455855
2013 02 05.48176 13 36 37.22 +01 53 09.5 20.6 V 703 – Catalina Sky Survey MPS 455855
2013 02 05.48912 13 36 37.54 +01 53 08.7 20.8 V 703 – Catalina Sky Survey MPS 455855
2013 03 14.23649 13 39 54.32 +03 07 03.9 20.2 G G45 – Space Surveillance Telescope, Atom Site MPS 1607518
2013 03 14.24989 13 39 53.87 +03 07 07.3 19.6 G G45 – Space Surveillance Telescope, Atom Site MPS 1607518
2013 03 14.28419 13 39 52.74 +03 07 15.4 19.5 G G45 – Space Surveillance Telescope, Atom Site MPS 1607518
2013 03 14.39908 13 39 48.83 +03 07 41.5 19.5 G G45 – Space Surveillance Telescope, Atom Site MPS 1607518
2013 04 01.29885 13 26 07.51 +04 13 14.3 19.1 V 703 – Catalina Sky Survey MPS 462479
2013 04 01.30671 13 26 06.97 +04 13 13.4 18.5 V 703 – Catalina Sky Survey MPS 462479
2013 04 01.31457 13 26 06.54 +04 13 16.6 19.4 V 703 – Catalina Sky Survey MPS 462479
2013 04 01.32264 13 26 06.00 +04 13 18.8 18.8 V 703 – Catalina Sky Survey MPS 462479
2013 04 01.36447 13 26 03.58 +04 13 24.8 18.4 V 703 – Catalina Sky Survey MPS 462479
2013 04 01.37212 13 26 03.15 +04 13 26.9 18.8 V 703 – Catalina Sky Survey MPS 462479
2013 04 01.37984 13 26 02.68 +04 13 28.7 19.2 V 703 – Catalina Sky Survey MPS 462479
2013 04 01.38760 13 26 02.18 +04 13 29.8 19.1 V 703 – Catalina Sky Survey MPS 462479
2013 04 02.52734 13 24 56.683 +04 16 55.47 18.7 i F51 – Pan-STARRS 1, Haleakala MPS 462479
